| time (UTC) | temp C | wind direction | speed KPH | gust KPH | rain 1hr cm | rain 24hr cm | rain mn cm | humidity % | barometer mb |
| 20260904133004 | 26 | 94 | 0.0 | 3.2 | 0.00 | 0.00 | 0.00 | 91 | 1012.5 |
| 20260904131503 | 26 | 94 | 0.0 | 1.6 | 0.00 | 0.00 | 0.00 | 90 | 1012.5 |
| 20260904130006 | 26 | 94 | 0.0 | 3.2 | 0.00 | 0.00 | 0.00 | 90 | 1012.4 |
| 20260904124509 | 25 | 89 | 0.0 | 6.4 | 0.00 | 0.00 | 0.00 | 90 | 1012.3 |
| 20260904123004 | 26 | 105 | 1.6 | 8.0 | 0.00 | 0.00 | 0.00 | 90 | 1012.1 |
| 20260904121503 | 26 | 109 | 3.2 | 8.0 | 0.00 | 0.00 | 0.00 | 89 | 1011.8 |
| 20260904120005 | 26 | 109 | 3.2 | 8.0 | 0.00 | 0.00 | 0.00 | 89 | 1011.3 |
| 20260904114505 | 26 | 109 | 4.8 | 12.9 | 0.00 | 0.00 | 0.00 | 89 | 1011.3 |
| 20260904113005 | 26 | 67 | 1.6 | 9.7 | 0.00 | 0.00 | 0.00 | 89 | 1011.2 |
| 20260904111503 | 26 | 107 | 0.0 | 6.4 | 0.00 | 0.00 | 0.00 | 89 | 1011.1 |
| 20260904110006 | 26 | 119 | 1.6 | 6.4 | 0.00 | 0.00 | 0.00 | 89 | 1011.2 |
| 20260904104504 | 26 | 105 | 0.0 | 3.2 | 0.00 | 0.00 | 0.00 | 88 | 1011.0 |
| 20260904103013 | 26 | 78 | 0.0 | 6.4 | 0.00 | 0.00 | 0.00 | 88 | 1010.9 |
| 20260904101505 | 26 | 109 | 0.0 | 3.2 | 0.00 | 0.00 | 0.00 | 88 | 1010.8 |
| 20260904100013 | 26 | 90 | 0.0 | 4.8 | 0.00 | 0.00 | 0.00 | 88 | 1010.8 |
| 20260904094503 | 26 | 222 | 0.0 | 3.2 | 0.00 | 0.00 | 0.00 | 87 | 1010.7 |
| 20260904093002 | 26 | 222 | 0.0 | 3.2 | 0.00 | 0.00 | 0.00 | 87 | 1010.6 |
| 20260904091503 | 26 | 165 | 0.0 | 11.3 | 0.00 | 0.00 | 0.00 | 87 | 1010.7 |
| 20260904090005 | 26 | 218 | 0.0 | 9.7 | 0.00 | 0.00 | 0.00 | 86 | 1010.6 |
| 20260904084503 | 26 | 232 | 1.6 | 8.0 | 0.00 | 0.00 | 0.00 | 86 | 1010.7 |
| 20260904083007 | 26 | 265 | 1.6 | 6.4 | 0.00 | 0.00 | 0.00 | 86 | 1010.7 |
| 20260904081505 | 26 | 316 | 0.0 | 4.8 | 0.00 | 0.00 | 0.00 | 86 | 1010.8 |
| 20260904080006 | 26 | 275 | 1.6 | 8.0 | 0.00 | 0.00 | 0.00 | 86 | 1010.7 |
| 20260904074503 | 26 | 303 | 1.6 | 8.0 | 0.00 | 0.00 | 0.00 | 86 | 1010.7 |
| 20260904073003 | 26 | 79 | 1.6 | 14.5 | 0.00 | 0.00 | 0.00 | 85 | 1010.8 |
| 20260904071503 | 26 | 197 | 0.0 | 6.4 | 0.00 | 0.00 | 0.00 | 85 | 1010.9 |
| 20260904070014 | 26 | 238 | 1.6 | 6.4 | 0.00 | 0.00 | 0.00 | 85 | 1011.0 |
| 20260904064510 | 26 | 103 | 1.6 | 9.7 | 0.00 | 0.00 | 0.00 | 84 | 1011.1 |
| 20260904063010 | 26 | 75 | 3.2 | 6.4 | 0.00 | 0.00 | 0.00 | 84 | 1011.0 |
| 20260904061503 | 26 | 217 | 1.6 | 12.9 | 0.00 | 0.00 | 0.00 | 83 | 1011.0 |
| 20260904060008 | 26 | 221 | 3.2 | 8.0 | 0.00 | 0.00 | 0.00 | 82 | 1011.1 |
| 20260904054506 | 26 | 88 | 1.6 | 9.7 | 0.00 | 0.00 | 0.00 | 82 | 1011.0 |
| 20260904053013 | 26 | 107 | 3.2 | 12.9 | 0.00 | 0.00 | 0.00 | 82 | 1010.8 |
| 20260904051506 | 26 | 102 | 1.6 | 11.3 | 0.00 | 0.00 | 0.00 | 82 | 1010.8 |
| 20260904050010 | 26 | 111 | 1.6 | 11.3 | 0.00 | 0.00 | 0.00 | 81 | 1010.9 |
| 20260904044506 | 26 | 100 | 4.8 | 11.3 | 0.00 | 0.00 | 0.00 | 81 | 1010.9 |
| 20260904043005 | 26 | 92 | 1.6 | 11.3 | 0.00 | 0.00 | 0.00 | 80 | 1010.8 |
| 20260904041505 | 26 | 92 | 4.8 | 14.5 | 0.00 | 0.00 | 0.00 | 80 | 1010.7 |
| 20260904040007 | 26 | 90 | 3.2 | 9.7 | 0.00 | 0.00 | 0.00 | 80 | 1010.6 |
| 20260904034505 | 26 | 103 | 1.6 | 14.5 | 0.00 | 0.00 | 0.00 | 79 | 1010.6 |
| 20260904033005 | 27 | 108 | 3.2 | 14.5 | 0.00 | 0.00 | 0.00 | 79 | 1010.6 |
| 20260904031505 | 27 | 60 | 4.8 | 14.5 | 0.00 | 0.00 | 0.00 | 78 | 1010.4 |
| 20260904030007 | 27 | 69 | 3.2 | 11.3 | 0.00 | 0.00 | 0.00 | 76 | 1010.3 |
| 20260904024504 | 27 | 101 | 3.2 | 12.9 | 0.00 | 0.00 | 0.00 | 75 | 1010.2 |
| 20260904023005 | 27 | 108 | 6.4 | 20.9 | 0.00 | 0.00 | 0.00 | 74 | 1009.9 |
| 20260904021505 | 28 | 86 | 4.8 | 14.5 | 0.00 | 0.00 | 0.00 | 72 | 1009.9 |
| 20260904020007 | 28 | 111 | 1.6 | 11.3 | 0.00 | 0.00 | 0.00 | 71 | 1009.7 |
| 20260904014505 | 28 | 96 | 3.2 | 11.3 | 0.00 | 0.00 | 0.00 | 70 | 1009.5 |
| 20260904013005 | 28 | 96 | 3.2 | 11.3 | 0.00 | 0.00 | 0.00 | 69 | 1009.1 |
| 20260904011511 | 29 | 63 | 4.8 | 14.5 | 0.00 | 0.00 | 0.00 | 68 | 1009.0 |
| 20260904010010 | 29 | 150 | 4.8 | 14.5 | 0.00 | 0.00 | 0.00 | 67 | 1009.0 |
| 20260904004505 | 30 | 67 | 4.8 | 14.5 | 0.00 | 0.00 | 0.00 | 66 | 1009.1 |
| 20260904003007 | 30 | 35 | 4.8 | 17.7 | 0.00 | 0.00 | 0.00 | 66 | 1009.1 |
| 20260904001504 | 30 | 94 | 6.4 | 22.5 | 0.00 | 0.00 | 0.00 | 65 | 1009.0 |
| 20260904000009 | 31 | 64 | 8.0 | 20.9 | 0.00 | 0.00 | 0.00 | 63 | 1009.0 |
| 20260903234505 | 31 | 52 | 4.8 | 14.5 | 0.00 | 0.00 | 0.00 | 64 | 1008.8 |
| 20260903233004 | 31 | 75 | 6.4 | 16.1 | 0.00 | 0.00 | 0.00 | 64 | 1008.7 |
| 20260903231504 | 32 | 48 | 8.0 | 19.3 | 0.00 | 0.00 | 0.00 | 62 | 1008.5 |
| 20260903230010 | 33 | 70 | 8.0 | 22.5 | 0.00 | 0.00 | 0.00 | 55 | 1008.4 |
| 20260903224510 | 35 | 88 | 9.7 | 20.9 | 0.00 | 0.00 | 0.00 | 50 | 1008.0 |
| 20260903223004 | 34 | 123 | 6.4 | 16.1 | 0.00 | 0.00 | 0.00 | 51 | 1008.0 |
| 20260903221505 | 35 | 146 | 6.4 | 17.7 | 0.00 | 0.00 | 0.00 | 51 | 1007.9 |
| 20260903220018 | 35 | 57 | 9.7 | 25.7 | 0.00 | 0.00 | 0.00 | 50 | 1007.8 |
| 20260903214507 | 36 | 81 | 6.4 | 16.1 | 0.00 | 0.00 | 0.00 | 46 | 1007.9 |
| 20260903213004 | 36 | 48 | 3.2 | 14.5 | 0.00 | 0.00 | 0.00 | 47 | 1008.0 |
| 20260903211504 | 36 | 98 | 4.8 | 16.1 | 0.00 | 0.00 | 0.00 | 47 | 1008.1 |
| 20260903210006 | 37 | 90 | 6.4 | 17.7 | 0.00 | 0.00 | 0.00 | 45 | 1008.2 |
| 20260903204510 | 37 | 70 | 6.4 | 17.7 | 0.00 | 0.00 | 0.00 | 45 | 1008.5 |
| 20260903203004 | 38 | 131 | 8.0 | 16.1 | 0.00 | 0.00 | 0.00 | 43 | 1008.7 |
| 20260903201506 | 38 | 107 | 8.0 | 17.7 | 0.00 | 0.00 | 0.00 | 44 | 1008.8 |
| 20260903200006 | 37 | 68 | 4.8 | 14.5 | 0.00 | 0.00 | 0.00 | 45 | 1008.8 |
| 20260903194505 | 37 | 123 | 3.2 | 14.5 | 0.00 | 0.00 | 0.00 | 46 | 1009.1 |
| 20260903193004 | 37 | 41 | 3.2 | 16.1 | 0.00 | 0.00 | 0.00 | 46 | 1009.3 |
| 20260903191507 | 37 | 38 | 3.2 | 16.1 | 0.00 | 0.00 | 0.00 | 46 | 1009.5 |
| 20260903190007 | 36 | 78 | 6.4 | 16.1 | 0.00 | 0.00 | 0.00 | 47 | 1009.8 |
| 20260903184504 | 36 | 61 | 6.4 | 16.1 | 0.00 | 0.00 | 0.00 | 48 | 1010.0 |
| 20260903183004 | 36 | 236 | 1.6 | 8.0 | 0.00 | 0.00 | 0.00 | 46 | 1010.3 |
| 20260903181504 | 36 | 181 | 4.8 | 16.1 | 0.00 | 0.00 | 0.00 | 47 | 1010.6 |
| 20260903180007 | 35 | 271 | 4.8 | 16.1 | 0.00 | 0.00 | 0.00 | 50 | 1010.6 |
| 20260903174504 | 35 | 191 | 6.4 | 16.1 | 0.00 | 0.00 | 0.00 | 48 | 1010.7 |
| 20260903173015 | 35 | 111 | 3.2 | 12.9 | 0.00 | 0.00 | 0.00 | 51 | 1010.9 |
| 20260903171507 | 35 | 209 | 3.2 | 16.1 | 0.00 | 0.00 | 0.00 | 55 | 1011.0 |
| 20260903170006 | 33 | 263 | 1.6 | 20.9 | 0.00 | 0.00 | 0.00 | 59 | 1011.2 |
| 20260903164504 | 33 | 196 | 4.8 | 22.5 | 0.00 | 0.00 | 0.00 | 58 | 1011.1 |
| 20260903163005 | 33 | 146 | 4.8 | 12.9 | 0.00 | 0.00 | 0.00 | 58 | 1011.3 |
| 20260903161504 | 33 | 242 | 3.2 | 14.5 | 0.00 | 0.00 | 0.00 | 61 | 1011.3 |
| 20260903160010 | 31 | 261 | 8.0 | 20.9 | 0.00 | 0.00 | 0.00 | 63 | 1011.2 |
| 20260903154504 | 31 | 234 | 6.4 | 20.9 | 0.00 | 0.00 | 0.00 | 67 | 1011.2 |
| 20260903153004 | 31 | 241 | 8.0 | 19.3 | 0.00 | 0.00 | 0.00 | 67 | 1011.2 |
| 20260903151504 | 30 | 259 | 4.8 | 17.7 | 0.00 | 0.00 | 0.00 | 71 | 1011.3 |
| 20260903150010 | 30 | 250 | 8.0 | 16.1 | 0.00 | 0.00 | 0.00 | 72 | 1011.2 |
| 20260903144504 | 29 | 254 | 6.4 | 20.9 | 0.00 | 0.00 | 0.00 | 75 | 1011.2 |
| 20260903143005 | 28 | 225 | 6.4 | 20.9 | 0.00 | 0.00 | 0.00 | 76 | 1011.3 |
| 20260903141505 | 28 | 227 | 9.7 | 17.7 | 0.00 | 0.00 | 0.00 | 79 | 1011.3 |
| 20260903140006 | 27 | 244 | 6.4 | 16.1 | 0.00 | 0.00 | 0.00 | 81 | 1011.4 |
| 20260903134507 | 27 | 243 | 6.4 | 12.9 | 0.00 | 0.00 | 0.00 | 82 | 1011.4 |